TimeCDT,TemperatureF,Dew PointF,Humidity,Sea Level PressureIn,VisibilityMPH,Wind Direction,Wind SpeedMPH,Gust SpeedMPH,PrecipitationIn,Events,Conditions,WindDirDegrees,DateUTC
12:15 AM,51.8,41.0,67,30.21,10.0,NE,19.6,24.2,N/A,,Clear,50,2013-05-23 05:15:00
12:35 AM,50.0,41.0,71,30.21,10.0,NE,17.3,25.3,N/A,,Clear,50,2013-05-23 05:35:00
12:55 AM,50.0,41.0,71,30.22,10.0,NE,16.1,-,N/A,,Clear,50,2013-05-23 05:55:00
1:15 AM,50.0,41.0,71,30.22,10.0,NE,18.4,-,N/A,,Clear,50,2013-05-23 06:15:00
1:35 AM,48.2,41.0,76,30.22,10.0,NE,19.6,25.3,N/A,,Clear,50,2013-05-23 06:35:00
1:55 AM,48.2,41.0,76,30.23,10.0,NE,19.6,-,N/A,,Clear,50,2013-05-23 06:55:00
2:15 AM,48.2,41.0,76,30.23,10.0,ENE,17.3,23.0,N/A,,Clear,60,2013-05-23 07:15:00
2:35 AM,48.2,39.2,71,30.24,10.0,ENE,17.3,-,N/A,,Clear,60,2013-05-23 07:35:00
2:55 AM,46.4,39.2,76,30.24,10.0,ENE,17.3,-,N/A,,Clear,60,2013-05-23 07:55:00
3:15 AM,46.4,39.2,76,30.24,10.0,ENE,17.3,-,N/A,,Clear,60,2013-05-23 08:15:00
3:35 AM,46.4,39.2,76,30.24,10.0,ENE,17.3,-,N/A,,Clear,60,2013-05-23 08:35:00
3:55 AM,46.4,39.2,76,30.25,10.0,ENE,16.1,-,N/A,,Clear,60,2013-05-23 08:55:00
4:15 AM,44.6,39.2,81,30.25,10.0,ENE,16.1,-,N/A,,Clear,60,2013-05-23 09:15:00
4:35 AM,44.6,39.2,81,30.25,10.0,ENE,16.1,23.0,N/A,,Clear,60,2013-05-23 09:35:00
4:55 AM,44.6,39.2,81,30.26,10.0,ENE,13.8,-,N/A,,Clear,70,2013-05-23 09:55:00
5:15 AM,42.8,39.2,87,30.27,10.0,ENE,12.7,-,N/A,,Clear,70,2013-05-23 10:15:00
5:35 AM,42.8,39.2,87,30.28,10.0,ENE,11.5,-,N/A,,Clear,70,2013-05-23 10:35:00
5:55 AM,41.0,39.2,93,30.28,10.0,ENE,11.5,-,N/A,,Clear,70,2013-05-23 10:55:00
6:15 AM,41.0,39.2,93,30.29,10.0,ENE,10.4,-,N/A,,Clear,70,2013-05-23 11:15:00
6:35 AM,42.8,39.2,87,30.29,10.0,East,12.7,-,N/A,,Clear,80,2013-05-23 11:35:00
6:55 AM,44.6,39.2,81,30.29,10.0,East,10.4,-,N/A,,Clear,80,2013-05-23 11:55:00
7:15 AM,46.4,37.4,71,30.30,10.0,East,12.7,19.6,N/A,,Clear,90,2013-05-23 12:15:00
7:35 AM,46.4,39.2,76,30.30,10.0,East,15.0,-,N/A,,Clear,90,2013-05-23 12:35:00
7:55 AM,48.2,39.2,71,30.30,10.0,East,16.1,19.6,N/A,,Clear,100,2013-05-23 12:55:00
8:15 AM,48.2,39.2,71,30.31,10.0,East,17.3,21.9,N/A,,Clear,100,2013-05-23 13:15:00
8:35 AM,50.0,39.2,66,30.31,10.0,ESE,16.1,-,N/A,,Clear,110,2013-05-23 13:35:00
8:55 AM,50.0,39.2,66,30.32,10.0,ESE,13.8,-,N/A,,Clear,110,2013-05-23 13:55:00
9:15 AM,53.6,39.2,58,30.32,10.0,ESE,16.1,-,N/A,,Clear,120,2013-05-23 14:15:00
9:35 AM,53.6,39.2,58,30.32,10.0,ESE,12.7,19.6,N/A,,Clear,120,2013-05-23 14:35:00
9:55 AM,55.4,41.0,58,30.32,10.0,SE,13.8,-,N/A,,Clear,130,2013-05-23 14:55:00
10:15 AM,55.4,41.0,58,30.32,10.0,ESE,15.0,-,N/A,,Clear,120,2013-05-23 15:15:00
10:35 AM,57.2,39.2,51,30.32,10.0,SE,13.8,18.4,N/A,,Clear,130,2013-05-23 15:35:00
10:55 AM,57.2,37.4,48,30.31,10.0,SE,13.8,20.7,N/A,,Clear,130,2013-05-23 15:55:00
11:15 AM,59.0,37.4,45,30.32,10.0,ESE,17.3,23.0,N/A,,Clear,120,2013-05-23 16:15:00
11:35 AM,59.0,37.4,45,30.31,10.0,ESE,13.8,20.7,N/A,,Clear,110,2013-05-23 16:35:00
11:55 AM,59.0,37.4,45,30.31,10.0,East,15.0,21.9,N/A,,Clear,90,2013-05-23 16:55:00
12:15 PM,60.8,37.4,42,30.31,10.0,SE,16.1,21.9,N/A,,Clear,130,2013-05-23 17:15:00
12:35 PM,60.8,37.4,42,30.31,10.0,ESE,16.1,21.9,N/A,,Clear,110,2013-05-23 17:35:00
12:55 PM,60.8,35.6,39,30.31,10.0,East,17.3,23.0,N/A,,Clear,100,2013-05-23 17:55:00
1:15 PM,60.8,35.6,39,30.30,10.0,East,20.7,25.3,N/A,,Clear,100,2013-05-23 18:15:00
1:35 PM,60.8,35.6,39,30.31,10.0,ESE,16.1,20.7,N/A,,Clear,120,2013-05-23 18:35:00
1:55 PM,60.8,37.4,42,30.30,10.0,East,20.7,-,N/A,,Clear,100,2013-05-23 18:55:00
2:15 PM,60.8,37.4,42,30.30,10.0,East,16.1,23.0,N/A,,Clear,100,2013-05-23 19:15:00
2:35 PM,62.6,37.4,39,30.29,10.0,East,17.3,24.2,N/A,,Clear,100,2013-05-23 19:35:00
2:55 PM,62.6,37.4,39,30.28,10.0,East,13.8,24.2,N/A,,Clear,100,2013-05-23 19:55:00
3:15 PM,62.6,37.4,39,30.29,10.0,ESE,17.3,23.0,N/A,,Clear,110,2013-05-23 20:15:00
3:35 PM,62.6,35.6,37,30.28,10.0,ESE,15.0,23.0,N/A,,Clear,110,2013-05-23 20:35:00
3:55 PM,62.6,35.6,37,30.27,10.0,SE,16.1,24.2,N/A,,Clear,140,2013-05-23 20:55:00
4:15 PM,62.6,35.6,37,30.27,10.0,ESE,16.1,24.2,N/A,,Clear,120,2013-05-23 21:15:00
4:35 PM,62.6,32.0,32,30.26,10.0,SE,15.0,21.9,N/A,,Clear,130,2013-05-23 21:35:00
4:55 PM,62.6,32.0,32,30.25,10.0,ESE,13.8,21.9,N/A,,Clear,120,2013-05-23 21:55:00
5:15 PM,62.6,35.6,37,30.25,10.0,SE,15.0,24.2,N/A,,Clear,130,2013-05-23 22:15:00
5:35 PM,62.6,35.6,37,30.24,10.0,ESE,18.4,-,N/A,,Clear,120,2013-05-23 22:35:00
5:55 PM,62.6,35.6,37,30.24,10.0,ESE,16.1,25.3,N/A,,Clear,120,2013-05-23 22:55:00
6:15 PM,62.6,35.6,37,30.24,10.0,SE,17.3,20.7,N/A,,Clear,130,2013-05-23 23:15:00
6:35 PM,62.6,35.6,37,30.24,10.0,ESE,13.8,21.9,N/A,,Clear,120,2013-05-23 23:35:00
6:55 PM,62.6,35.6,37,30.22,10.0,ESE,18.4,24.2,N/A,,Clear,120,2013-05-23 23:55:00
7:15 PM,62.6,35.6,37,30.22,10.0,ESE,18.4,-,N/A,,Clear,110,2013-05-24 00:15:00
7:35 PM,60.8,35.6,39,30.22,10.0,ESE,18.4,23.0,N/A,,Clear,120,2013-05-24 00:35:00
7:55 PM,60.8,35.6,39,30.22,10.0,ESE,16.1,23.0,N/A,,Clear,120,2013-05-24 00:55:00
8:15 PM,59.0,35.6,42,30.22,10.0,ESE,13.8,-,N/A,,Clear,110,2013-05-24 01:15:00
8:35 PM,59.0,35.6,42,30.22,10.0,ESE,13.8,-,N/A,,Clear,120,2013-05-24 01:35:00
8:55 PM,57.2,35.6,44,30.23,10.0,ESE,11.5,-,N/A,,Clear,120,2013-05-24 01:55:00
9:15 PM,55.4,37.4,51,30.22,10.0,ESE,11.5,-,N/A,,Clear,110,2013-05-24 02:15:00
9:35 PM,53.6,37.4,54,30.22,10.0,ESE,11.5,-,N/A,,Clear,110,2013-05-24 02:35:00
9:55 PM,53.6,37.4,54,30.22,10.0,ESE,11.5,-,N/A,,Clear,110,2013-05-24 02:55:00
10:15 PM,53.6,37.4,54,30.22,10.0,East,12.7,-,N/A,,Clear,100,2013-05-24 03:15:00
10:35 PM,51.8,37.4,58,30.22,10.0,East,12.7,-,N/A,,Clear,100,2013-05-24 03:35:00
11:15 PM,50.0,39.2,66,30.22,10.0,ESE,10.4,-,N/A,,Clear,110,2013-05-24 04:15:00
11:35 PM,48.2,37.4,66,30.22,10.0,ESE,11.5,-,N/A,,Clear,110,2013-05-24 04:35:00
11:55 PM,48.2,37.4,66,30.22,10.0,ESE,12.7,-,N/A,,Clear,110,2013-05-24 04:55:00